Regional Weather Roundup
Issued by NWS Pendleton, OR

Home | Current Version | Previous Version | Text Only | Print | Product List | Glossary On
Versions: 1 2 3 4 5 6 7 8 9 10 11 12 13 14 15 16 17 18 19 20 21 22 23 24 25 26 27 28 29 30 31 32 33 34 35 36 37 38 39 40 41 42 43 44 45 46 47 48 49 50
000
ASUS46 KPDT 240925
RWRPDT
PENDLETON REGIONAL WEATHER ROUNDUP
NATIONAL WEATHER SERVICE PENDLETON OREGON
200 AM PDT MON JUL 24 2017

NOTE: FAIR INDICATES FEW OR NO CLOUDS BELOW 12,000 FEET WITH NO
SIGNIFICANT WEATHER AND/OR OBSTRUCTIONS TO VISIBILITY.

# INDICATES UNOFFICIAL STATION AND DATA

WAZ520-241010-
EAST SLOPES OF WASHINGTON CASCADES

CITY            SKY/WX      TMP DP  RH  WIND    PRES   REMARKS
#BULLFROG       N/A         61  51  70  W12     N/A
#CLE ELUM HS    N/A         61  49  65  N6      29.92R
#CLE ELUM LAKE  N/A         55  46  72  CALM    30.03S
#EASTON DOT     N/A         57  50  77  N2      N/A
#ELK HTS DOT    N/A         61  60  97  W6      N/A
#GLENWOOD       N/A         52  48  86  CALM    29.83R
#NELSON 3SW     N/A         53  42  66  CALM    30.07R
#NILE           N/A         55  44  66  CALM    29.18S
#TEANAWAY 4NE   N/A         54  46  74  W2      N/A
#TROUT LAKE 1NE N/A         56  49  77  CALM    29.83R
#TROUT LAKE 1E  N/A         62  49  62  CALM    29.96R
$$

WAZ521-241010-
SIMCOE HIGHLANDS

CITY            SKY/WX      TMP DP  RH  WIND    PRES   REMARKS
#BICKLETON HS   N/A         68  46  45  N20     29.90R
#SATUS PASS DOT N/A         62  41  46  S3      N/A
#CENTERVILLE 1SWN/A         61  50  67  CALM    29.78R
#GOLDENDALE 1NE N/A         62  45  54  CALM    N/A
#GOLDENDALE 4W  N/A         59  31  34  NE6     29.95R
#GOODNOE HILLS  N/A         69  53  57  NW7     N/A
#LYLE 6NE       N/A         66  55  68  W6      29.83S
#PITT 4SE       N/A         60  53  78  CALM    29.84R
$$

WAZ026-241010-
KITTITAS VALLEY

CITY            SKY/WX      TMP DP  RH  WIND    PRES   REMARKS
ELLENSBURG AP   CLEAR       64  47  54  NW16G24 29.93R
#ELLENSBURG CWU N/A         64  47  54  N15     29.79R
#ELLENSBURG 3NE N/A         62  48  60  N10G26  28.01R
#ELLENSBURG 1E  N/A         65  46  50  NW3     29.86R
#KITTITAS 3S    N/A         58  49  72  CALM    29.84R
#MANASTASH RDG  N/A         58  58  100 N9      N/A
#ROCKY CYN DOT  N/A         62  50  65  NW14    N/A
#RYEGRASS DOT   N/A         58  48  69  W12     N/A
$$

WAZ027-241010-
YAKIMA VALLEY

CITY            SKY/WX      TMP DP  RH  WIND    PRES   REMARKS
SUNNYSIDE AP    N/A         56  48  74  CALM    29.88R
YAKIMA AIRPORT  CLEAR       72  41  33  N9      29.90R
YAKIMA-VAGABOND MOCLEAR     65  41  41  E10     29.90R
#DONALD 2NE     N/A         68  10  10  SE3     28.74R
#GRANDVIEW      N/A         70  45  41  W1      29.84R
#MABTON         N/A         72  48  43  SW3     29.86R
#MOXEE 2E       N/A         71  N/A N/A N12     29.84R
#NACHES 2SW     N/A         66  44  45  W12     29.92R
#OUTLOOK DOT    N/A         69  44  40  CALM    29.83R
#PARKER DOT     N/A         72  37  28  E5      29.87R
#TERRACE HTS    N/A         69  41  36  CALM    29.78R
#TOPPENISH      N/A         73  41  31  CALM    29.74R
#I82 S UMTANUM RN/A         65  45  48  N5      N/A
#UNION GAP DOT  N/A         71  38  30  N6      29.91R
#W YAKIMA       N/A         66  43  43  CALM    29.84R
#WHITE SWAN 5E  N/A         66  49  54  CALM    29.83R
#WILEY CITY 3W  N/A         57  42  57  CALM    29.87R
#ZILLAH DOT     N/A         72  38  29  W8      N/A
$$

WAZ028-241010-
LOWER COLUMBIA BASIN...WASHINGTON

CITY            SKY/WX      TMP DP  RH  WIND    PRES   REMARKS
HANFORD         MOCLEAR     72  44  37  NW13    29.86R
PASCO           PTCLDY      67  51  56  N5      29.86R
PROSSER AWOS    N/A         64  50  60  N5      29.91R
RICHLAND AWOS   PTCLDY      72  44  37  CALM    29.86R
#BENTON CITY    N/A         68  44  42  CALM    29.73R
#CONNELL 5N     N/A         67  47  49  S3      29.78R
#CONNELL 5NW    N/A         65  48  54  N6      29.75R
#ELTOPIA 6NW    N/A         68  51  55  CALM    28.84R
#KAHLOTUS       N/A         71  45  39  N17G24  29.76R
#KENNEWICK 3S   N/A         70  48  46  CALM    29.83R
#PATERSON       N/A         71  46  41  CALM    29.80R
#PROSSER DOT    N/A         65  49  56  CALM    29.88R
#SAGEMOOR 2W    N/A         69  51  53  W8      29.68R
#TOUCHET 2S     N/A         70  50  49  W1      29.80R
#WEST PASCO     N/A         74  47  38  NW2     29.82R
$$

WAZ029-241010-
FOOTHILLS OF THE BLUES...WASHINGTON

CITY            SKY/WX      TMP DP  RH  WIND    PRES   REMARKS
WALLA WALLA AP  MOCLDY      74  45  35  CALM    29.88R
#CLYDE 6NW      N/A         69  44  40  W6      29.79R
#DAYTON SCHOOL  N/A         66  47  50  CALM    29.91R
#DELANEY DOT    N/A         73  38  28  W1      29.86R
#LOWDEN 2SE     N/A         65  52  63  CALM    29.82R
#PLEASANT VIEW 1N/A         70  42  36  SW5     29.79R
#PRESCOTT       N/A         62  54  75  CALM    29.80R
#WHITMAN COLLEGEN/A         73  49  43  CALM    29.85R
#WAITSBURG 5S   N/A         67  45  45  CALM    29.88R
#WAITSBURG 6SSE N/A         66  47  50  CALM    29.83R
#WALLA WALLA 5E N/A         65  45  48  NE2     N/A
#WHITMAN MISSIONN/A         70  50  49  CALM    29.83R
$$

WAZ030-241010-
BLUE MOUNTAINS...WASHINGTON

CITY            SKY/WX      TMP DP  RH  WIND    PRES   REMARKS
#DIXIE 5SE      N/A         69  43  39  S5      29.89R
$$

ORZ009-041-WAZ024-241010-
COLUMBIA RIVER GORGE

CITY            SKY/WX      TMP DP  RH  WIND    PRES   REMARKS
HOOD RIVER AP   CLEAR       64  55  73  CALM    29.90R
THE DALLES AP   CLEAR       71  58  64  N16     29.85R
#ARLINGTON AIRPON/A         72  55  55  SW6     29.83R
#CELILO DOT     N/A         75  54  48  S7      N/A
#LYLE           N/A         71  58  64  W10     29.87R
#MARYHILL       N/A         73  51  46  N1      29.72R
#RUFUS DOT      N/A         77  N/A N/A W7      N/A
#SMITHVILLE     N/A         70  57  63  W14     29.84R

$$

ORZ510-241010-
NORTH CENTRAL OREGON

CITY            SKY/WX      TMP DP  RH  WIND    PRES   REMARKS
#ANTELOPE       N/A         59  44  57  N3      29.65R
#CHENOWITH 1W   N/A         62  55  78  NW25G32 N/A
#COW CYN RST AREN/A         70  45  41  SW2     N/A
#DUFUR          N/A         54  46  74  CALM    29.80R
#DUFUR 9E       N/A         67  52  59  CALM    29.85R
#GRASS VALLEY 1SN/A         61  47  60  CALM    29.96R
#KENT DOT       N/A         62  45  54  W8      N/A
#MAUPIN SCHOOL  N/A         70  53  55  W1      29.93R
#MORO SCHOOL    N/A         67  58  73  W7      29.89R
#SHANIKO 5WSW   N/A         68  40  36  CALM    N/A
#SHANIKO 4NW    N/A         67  43  42  W5      29.99S
#TYGH VALLEY 2NEN/A         63  50  62  CALM    29.80R
#WAPANITIA AIRPON/A         64  52  65  W1      29.80S
#WASCO 5NE      N/A         67  53  61  CALM    29.80R
$$

ORZ511-241010-
CENTRAL OREGON

CITY            SKY/WX      TMP DP  RH  WIND    PRES   REMARKS
BEND AIRPORT    PTCLDY      64  41  43  CALM    30.00S
MADRAS AIRPORT  PTCLDY      59  45  60  CALM    29.96S
PRINEVILLE AP   MOCLDY      64  45  50  SW5     29.98F
REDMOND AIRPORT MOCLDY      66  38  36  SE5     29.97F
#ASHWOOD SCHOOL N/A         63  42  46  CALM    29.92R
#BEND 1SW       N/A         60  43  53  W2      N/A
#BEND-AWBREY    N/A         66  42  42  CALM    29.77F
#BEND-KIM LN    N/A         60  49  67  SW2     29.72S
#CULVER         N/A         64  47  54  CALM    29.72S
#CULVER 8W      N/A         62  43  50  CALM    29.96F
#LAKE BILLY CHINN/A         66  N/A N/A CALM    29.90S
#MADRAS 4S      N/A         62  15  16  CALM    N/A
#POWELL BUTTE   N/A         69  45  42  W3      29.96S
#PRINEVILLE     N/A         67  48  50  CALM    29.85F
#PRINEVILLE 3N  N/A         64  52  65  NE2     29.86F
#WARM SPRINGS   N/A         66  45  47  CALM    29.71R

$$


ORZ509-241010-
EAST SLOPES OF OREGON CASCADES

CITY            SKY/WX      TMP DP  RH  WIND    PRES   REMARKS
SISTERS AWOS    N/A         61  52  72  CALM    29.96F
#BLUE BOX PASS  N/A         55  N/A N/A CALM    N/A
#CAMP SHERMAN   N/A         54  46  74  CALM    29.87R
#LA PINE 4NW    N/A         62  45  54  CALM    29.81S
#LAVA BUTTE DOT N/A         60  35  39  NE2     N/A
#SISTERS ODOT   N/A         58  49  72  CALM    N/A
#SISTERS 3N     N/A         56  46  69  CALM    29.90S
#SUNRIVER       N/A         60  47  62  CALM    29.95F
#TUMALO 3W      N/A         66  46  48  W5      29.64F
#WANOGA BUTTE D N/A         65  39  38  CALM    N/A

$$

ORZ044-241010-
LOWER COLUMBIA BASIN...OREGON

CITY            SKY/WX      TMP DP  RH  WIND    PRES   REMARKS
HERMISTON       MOCLDY      70  56  61  CALM    29.86R
#BOARDMAN SCHOOLN/A         71  58  64  CALM    29.83R
#BOARDMAN 8SW   N/A         69  58  68  SW7     29.83R
#ECHO 8SW       N/A         72  54  53  CALM    29.88R
#I-84 EX 198 DOTN/A         74  57  55  E1      N/A
#IONE SCHOOL    N/A         66  45  47  CALM    29.83R
#UMATILLA       N/A         71  54  55  CALM    29.76R
$$

ORZ507-241010-
NORTHERN FOOTHILLS OF THE BLUES

CITY            SKY/WX      TMP DP  RH  WIND    PRES   REMARKS
PENDLETON AIRPT MOCLDY      68  46  45  NW5     29.89R
#ADAMS 3WNW     N/A         63  41  44  CALM    29.81R
#ATHENA         N/A         61  47  60  CALM    29.83S
#CAYUSE         N/A         66  52  61  E3      29.80R
#HELIX SCHOOL   N/A         64  42  45  N5      29.81R
#HELIX 3N       N/A         65  43  45  NW1     29.89S
#HOLDMAN 6E     N/A         70  45  41  N6      29.61S
#M-F GROVE ELEM N/A         68  46  45  CALM    29.86R
#M-FREEWATER 5SEN/A         65  50  58  CALM    29.89R
#PENDLETON DNTN N/A         69  45  42  CALM    29.89R
#PDT AQUATIC CTRN/A         68  46  45  CALM    29.90R
#PDT SUNRIDGE   N/A         66  50  56  CALM    29.90R
#PENDLETON 7NW  N/A         67  51  56  CALM    29.90R
#PILOT ROCK 1S  N/A         67  47  49  CALM    29.93R
#PILOT ROCK     N/A         66  47  50  CALM    29.94R
#TUTUILLA       N/A         62  52  70  CALM    29.94R
#UMAPINE 2E     N/A         64  52  65  CALM    29.83R
#WESTON SCHOOL  N/A         66  45  47  CALM    29.82R

$$

ORZ508-241010-
SOUTHERN FOOTHILLS OF THE BLUES

CITY            SKY/WX      TMP DP  RH  WIND    PRES   REMARKS
LEXINGTON       CLOUDY      66  52  61  E8      29.94R
#AJAX           N/A         70  45  41  S1      30.08S
#CONDON 5W      N/A         66  50  56  CALM    29.98R
#FOSSIL SCHOOL  N/A         62  47  58  CALM    29.91R
#HEPPNER EOC    N/A         67  50  54  E6      29.74R
#HEPPNER 4NE    N/A         65  52  63  CALM    29.79
#LEXINGTON 2SE  N/A         64  52  65  CALM    29.89R
#MIKKALO        N/A         67  47  49  CALM    30.03R
#OLEX 4N        N/A         69  53  57  W7      29.87R
#RUGGS 5NE      N/A         67  49  52  CALM    30.14S
#RUGGS 2SW      N/A         65  48  54  SW3     29.81R

$$

ORZ502-503-241010-
BLUE MOUNTAINS

CITY            SKY/WX      TMP DP  RH  WIND    PRES   REMARKS
MEACHAM         CLOUDY      55  47  74  CALM    30.02R
#BATTLE MTN DOT N/A         62  45  54  CALM    N/A
#GRANITE        N/A         57  45  64  CALM    29.71R
#HARDMAN 10S    N/A         64  47  54  CALM    29.86R
#HEPPNER 15SE   N/A         59  48  67  CALM    29.87S
#LADD CYN SMT   N/A         61  49  65  N1      N/A
#LADD CREEK ODOTN/A         64  50  60  S1      N/A
#LONG CREEK HS  N/A         66  47  50  CALM    N/A
#N POWDER DOT   N/A         62  55  78  S5      N/A
#PIKES PEAK     N/A         69  42  37  N9      27.99S
#TOLLGATE       N/A         58  42  55  CALM    29.92S
#TROY SCHOOL    N/A         67  55  65  CALM    29.62S
#UKIAH          N/A         58  47  67  CALM    29.74R
#WESTON 4E      N/A         67  43  42  N1      29.73F
$$

ORZ505-241010-
JOHN DAY BASIN

CITY            SKY/WX      TMP DP  RH  WIND    PRES   REMARKS
JOHN DAY        CLOUDY      72  46  39  CALM    29.99F
#JOHN DAY KJDY  N/A         70  N/A N/A CALM    30.45R
#DAYVILLE SCHOOLN/A         76  45  33  CALM    29.89R
#MITCHELL       N/A         67  50  54  CALM    30.14S
#MITCHELL 8NW   N/A         71  42  35  CALM    29.80F
#MONUMENT HS    N/A         70  46  42  CALM    29.86R
#MT. VERNON 5SE N/A         70  47  44  CALM    29.96S
#SPRAY SCHOOL   N/A         69  N/A N/A CALM    N/A
$$

ORZ506-241010-
OCHOCO AND JOHN DAY HIGHLANDS

CITY            SKY/WX      TMP DP  RH  WIND    PRES   REMARKS
#HORSE RIDGE DO N/A         56  35  45  SE6     N/A
#IZEE 6NW       N/A         64  46  52  CALM    N/A
#PAULINA ODOT   N/A         73  44  35  SW1     N/A
#PINE MTN OBS   N/A         65  44  46  CALM    N/A
#PRAIRIE CITY   N/A         63  49  60  CALM    30.12R
#SENECA         N/A         66  N/A N/A CALM    N/A
#SENECA 9NW     N/A         64  47  54  CALM    29.74F
$$

ORZ049-241010-
GRANDE RONDE VALLEY

CITY            SKY/WX      TMP DP  RH  WIND    PRES   REMARKS
LA GRANDE       MOCLDY      75  46  36  NW7     29.94R
#COVE           N/A         66  53  63  N1      29.98R
#COVE SCHOOL    N/A         66  50  56  CALM    29.97R
#COVE 6NW       N/A         60  51  72  CALM    29.79R
#ELGIN 3N       N/A         59  47  64  CALM    29.92R
#ELGIN 1E       N/A         61  49  65  CALM    N/A
#IMBLER SCHOOL  N/A         65  49  56  CALM    29.91R
#ISLAND CITY 4N N/A         56  51  83  CALM    29.98S
#LA GRANDE-LEFFEN/A         72  50  46  W5      29.95R
#UNION 1S       N/A         66  51  58  CALM    29.78R
$$

ORZ050-241010-
WALLOWA COUNTY

CITY            SKY/WX      TMP DP  RH  WIND    PRES   REMARKS
JOSEPH AIRPORT  MOCLDY      61  45  56  S3      30.02S
#ENTERPRISE HS  N/A         56  49  77  CALM    29.67S
#IMNAHA SCHOOL  N/A         70  48  46  SE2     29.89R
#IMNAHA 10S     N/A         68  46  45  SW5     29.94R
#JOSEPH         N/A         66  46  48  SW1     29.95F
#JOSEPH 3N      N/A         54  46  74  CALM    30.03S
#JOSEPH 3W      N/A         65  48  54  SW2     29.88S
#LOSTINE        N/A         60  49  67  CALM    29.59S
#LOSTINE 3SE    N/A         61  45  56  W5      30.03R
#MT HOWARD 8000 N/A         58  34  40  CALM    30.30S
#PROMISE 1S     N/A         69  49  49  CALM    29.80F
#WALLOWA LAKE   N/A         63  46  54  S1      30.05S
#WALLOWA SCHOOL N/A         57  51  80  CALM    29.93R



$$



USA.gov is the U.S. government's official web portal to all federal, state and local government web resources and services.